Other Public Products
Issued by NWS Grand Forks, ND

Home | Current Version | Previous Version | Graphics & Text | Print | Product List | Glossary On
Versions: 1 2 3 4 5 6 7 8 9 10 11 12 13 14 15 16 17 18 19 20 21 22 23 24 25 26 27 28 29 30 31 32 33 34 35 36 37 38 39 40 41 42 43 44 45 46 47 48 49 50
000
FPUS83 KFGF 142110
OPUFGF
PRAIRIE TO PINES WEATHER ROUNDUP
NATIONAL WEATHER SERVICE EASTERN NORTH DAKOTA/GRAND FORKS ND
400 PM CDT SUN SEP 14 2014

 **SATELLITE DATA USED TO AUGMENT SKY COVER AT AUTOMATED STATIONS**
 *****  WEATHER ACROSS EASTERN NORTH DAKOTA  *****

CITY           SKY/WX    TMP DP  RH WIND       PRES   REMARKS
GRAND FORKS    CLOUDY    57  42  57 NW12      30.09F
GRAND FORKS AF CLOUDY    58  41  54 N10       30.10S
GRAND CITY NWS   N/A     55 N/A N/A NW7         N/A
BUXTON         NOT AVBL
DEVILS LAKE    CLOUDY    54  36  50 NW10      30.11S
FARGO          CLOUDY    59  43  55 N9        30.10F
WAHPETON ARPT  MOCLDY    57  41  54 W7        30.11F
$$

 *****  WEATHER ACROSS CENTRAL AND WESTERN NORTH DAKOTA  *****

CITY           SKY/WX    TMP DP  RH WIND       PRES   REMARKS
JAMESTOWN      SUNNY     55  41  59 NW8       30.12F
BISMARCK       MOSUNNY   61  33  35 W6        30.14F
MINOT          CLOUDY    54  34  46 NW7       30.13F
MINOT AFB      CLOUDY    55  33  44 N10       30.13S
GARRISON         N/A     56  33  42 NW13      30.13F
WILLISTON      CLOUDY    57  29  34 CALM      30.15F
DICKINSON      CLOUDY    55  32  41 CALM      30.13S
HETTINGER      MOSUNNY   56  28  34 CALM      30.14S
$$

 *****  OTHER OBSERVATIONS NORTHEAST NORTH DAKOTA  *****

CITY           SKY/WX    TMP DP  RH WIND       PRES   REMARKS
WALHALLA       NOT AVBL
LANGDON        CLOUDY    54  37  54 NW9       30.10F
CAVALIER       CLOUDY    55  39  54 NW9       30.10S
GRAFTON        CLOUDY    55  41  58 NW12G18   30.10R
CANDO          CLOUDY    54  36  50 NW10G16   30.12S
FORT TOTTEN      N/A     53  39  58 NW6       29.95S
ROLLA          CLOUDY    52  34  50 NW9       30.14S
RUGBY          FAIR      54  39  58 NW10      30.13F
 ***** THE ABOVE OBSERVATIONS ARE NON NWS ARE NOT QUALITY
        CONTROLLED AND MAY MIS-REPORT RAIN FOR SNOW...
$$

 *****  OTHER OBSERVATIONS SOUTHEAST NORTH DAKOTA *****

CITY           SKY/WX    TMP DP  RH WIND       PRES   REMARKS
COOPERSTOWN    NOT AVBL
VALLEY CITY    CLOUDY    54  41  62 N9        30.12S
OAKES            N/A     55  41  58 NW5       30.13F
GWINNER        MOCLDY    57  39  51 NW7       30.13F
BUFFALO        NOT AVBL
WYNDMERE         N/A     61  43  51 NW8         N/A
 ***** THE ABOVE OBSERVATIONS ARE NON NWS ARE NOT QUALITY
       CONTROLLED AND MAY MIS-REPORT RAIN FOR SNOW...
$$

  *****  WEATHER ACROSS NORTHERN MINNESOTA  *****

CITY           SKY/WX    TMP DP  RH WIND       PRES   REMARKS
FLAG ISLAND    PTSUNNY   52  43  71 NW17      30.02R
WARROAD        LGT RAIN  54  46  76 W6        30.05R
ROSEAU         CLOUDY    50  45  81 W7        30.06R
HALLOCK        SUNNY     55  43  62 W14       30.08S
THF RVR FALLS  CLOUDY    55  43  62 W8        30.08F
HALSTAD          N/A     57  37  47 N8          N/A
FOSSTON        CLOUDY    52  43  71 W3        30.10F
BAUDETTE       MOSUNNY   55  42  61 NW5       30.03S
WASKISH        PTSUNNY   59  46  63 CALM      30.04F
CROOKSTON      CLOUDY    55  43  62 NW7       30.10F
$$
  *****  WEATHER ACROSS CENTRAL AND WEST MINNESOTA  *****

CITY           SKY/WX    TMP DP  RH WIND       PRES   REMARKS
BEMIDJI        PTSUNNY   55  43  64 W14       30.07S
PARK RAPIDS    CLOUDY    53  43  68 W12       30.09F
WADENA         CLOUDY    54  45  71 NW8       30.10F
DETROIT LAKES  MOSUNNY   54  43  66 NW3       30.12S
MOORHEAD       PTSUNNY   57  45  62 N8        30.11S
FERGUS FALLS   CLOUDY    57  39  51 W3        30.11F
ELBOW LAKE     CLOUDY    56  42  57 W7        30.11F
MORRIS MN      CLOUDY    61  43  51 MISG      30.11S
STAPLES        CLOUDY    54  41  62 NW9       30.11S
WHEATON        PTSUNNY   57  41  54 SW5       30.14F
$$
  *****  WEATHER ELSEWHERE ACROSS MINNESOTA  *****

CITY           SKY/WX    TMP DP  RH WIND       PRES   REMARKS
DULUTH         PTSUNNY   57  41  55 NW9       30.04S
INTRNTL FALLS  PTSUNNY   56  44  64 NW8       30.01S
ELY            MOSUNNY   54  43  66 W13G18    30.00R
CLOQUET        PTSUNNY   57  41  54 NW10G18   30.05S
BRAINERD       CLOUDY    54  42  64 W9        30.10S
HIBBING        PTSUNNY   57  42  57 W9G17     30.04F
ALEXANDRIA     CLOUDY    57  42  57 NW13      30.13F
SAINT CLOUD    PTSUNNY   62  41  46 W14       30.09F
MINNEAPOLIS    PTSUNNY   64  35  34 W14G21    30.10F
$$

  *****  WEATHER ACROSS SOUTH DAKOTA  *****

CITY           SKY/WX    TMP DP  RH WIND       PRES   REMARKS
SIOUX FALLS    CLOUDY    64  43  46 CALM      30.11F
BROOKINGS      NOT AVBL
WATERTOWN      MOSUNNY   57  37  47 NW7       30.13S
HURON          CLOUDY    57  40  52 N5        30.13F
SISSETON         N/A     60  43  53 NW9       30.12S
ABERDEEN       MOSUNNY   60  40  47 N6        30.12F
MITCHELL       CLOUDY    60  44  55 N7        30.13F
PIERRE         CLOUDY    55  38  52 NE7       30.11F
MOBRIDGE       MOSUNNY   58  38  47 VRB6      30.11F
RAPID CITY     CLOUDY    53  37  54 SE10      30.12F
$$

  *****  SOME WEATHER IN NEARBY STATES *****

CITY           SKY/WX    TMP DP  RH WIND       PRES   REMARKS
GLASGOW MT     CLOUDY    56  34  43 S7        30.14S
GREAT FALLS MT SUNNY     63  34  33 CALM      30.11S
CHEYENNE WY    MOSUNNY   75  27  17 SW17      30.07S
SCOTTSBLUFF NE SUNNY     69  49  48 E6        30.01F
OMAHA NE       PTSUNNY   70  48  45 S9        30.09F
DES MOINES IA  PTSUNNY   70  49  47 W9        30.14F
DAVENPORT IA   SUNNY     66  43  43 S9        30.19F
CHICAGO IL     MOSUNNY   65  43  44 SW10      30.19F
EAU CLAIRE WI  MOSUNNY   66  40  38 W14       30.08F
LA CROSSE WI   PTSUNNY   69  48  47 SW13      30.09F
$$

  *****  SOME NATIONAL WEATHER *****

CITY           SKY/WX    TMP DP  RH WIND       PRES   REMARKS
LA GUARDIA NY  PTSUNNY   70  43  37 CALM      30.18F
RALEIGH NC     PTSUNNY   70  58  65 VRB5      30.23F
ATLANTA GA     CLOUDY    74  66  76 NE12      30.17S
NEW ORLEANS LA MOSUNNY   89  72  56 NE12      30.05F HX  96
OKLAHOMA CITY  PTSUNNY   78  60  53 S13       30.14F
ALBUQUERQUE NM MOSUNNY   80  53  39 SW13      30.16F
SALT LAKE CITY PTSUNNY   86  30  13 CALM      30.00F
LOS ANGELES CA MOSUNNY   82  64  54 W15       29.73F
BOISE ID       SUNNY     81  31  16 CALM      29.95F
SEATTLE WA     SUNNY     82  42  24 N8        29.90F
$$

*** WEATHER ACROSS MANITOBA...SASKATCHEWAN AND ONTARIO ***
                ***ONTARIO***

CITY           SKY/WX    TMP DP  RH WIND       PRES   REMARKS
GERALDTON      DRIZZLE   46  46 100 S5        29.90F
THUNDER BAY    NOT AVBL
SIOUX LOOKOUT  PTSUNNY   57  41  54 W8        29.94S
TORONTO        PTSUNNY   57  41  54 S10       30.24F
BIG TROUT LK   CLOUDY    45  37  76 NE5       29.97S
PICKLE LAKE    LGT RAIN  46  43  87 N3        29.92R
DRYDEN         MOSUNNY   57  41  54 W10G17    29.96S
KENORA         NOT AVBL
$$
                *** MANITOBA***

CITY           SKY/WX    TMP DP  RH WIND       PRES   REMARKS
BRANDON        CLOUDY    54  34  47 NW15      30.13S
DAUPHIN        CLOUDY    54  30  40 W6        30.11S
ISLAND LAKE    CLOUDY    48  37  66 NW6       30.02F
PILOT MOUND      N/A     52  36  54 NW9         N/A
THE PAS        MOSUNNY   59  34  38 SW17G24   29.98F
THOMPSON       NOT AVBL
WINNIPEG       PTSUNNY   57  37  47 NW14G25   30.08S
LYNN LAKE      MOSUNNY   55  28  35 MISG      29.91S
CHURCHILL      PTSUNNY   48  39  71 N7        29.83F
GILLAM         PTSUNNY   52  32  46 SW12G17   29.93F
$$
                ***SASKATCHEWAN***

CITY           SKY/WX    TMP DP  RH WIND       PRES   REMARKS
ESTEVAN        PTSUNNY   54  34  47 NW8       30.15S
KINDERSLEY     PTSUNNY   61  37  41 W5G17     30.07F
LLOYDMINSTER   PTSUNNY   61  34  36 W9        30.04S
PRINCE ALBERT  PTSUNNY   59  36  41 W12       30.05S
REGINA         PTSUNNY   55  34  44 W6        30.13S
YORKTON        CLOUDY    54  36  50 SW6       30.11S


USA.gov is the U.S. government's official web portal to all federal, state and local government web resources and services.